{"data":{"norad_id":54643,"epoch":"2026-09-20T04:14:07.615392Z","epoch_age_seconds":49827,"freshness":"FRESH","line1":"1 54643U 22166B   26263.17647703  .00000018  00000+0  10948-4 0  9997","line2":"2 54643  87.9279 225.0910 0002016  73.8448 286.2907 13.21826005184092","mean_motion":13.21826005,"eccentricity":0.0002016,"inclination_deg":87.9279,"raan_deg":225.091,"arg_perigee_deg":73.8448,"mean_anomaly_deg":286.2907,"bstar":1.0948e-5,"rev_number":18409,"period_min":108.94020805711,"perigee_km":1176.2300818193,"apogee_km":1179.2766168081,"semimajor_km":7555.8903493137,"source":"CELESTRAK","updated_at":"2026-09-20T09:00:44.723047Z"}}